     19   11 13.75  +26 14.4    1.570   0.802    26.2   33.5    7.5    +3.9  240.3

     20   11 17.51  +26 48.5    1.549   0.798    27.1   34.9    7.5    +4.4  240.0

     21   11 21.41  +27 22.9    1.527   0.795    27.9   36.3    7.4    +4.9  239.6

     22   11 25.47  +27 57.5    1.505   0.792    28.8   37.7    7.4    +5.4  239.3

     23   11 29.71  +28 32.4    1.483   0.789    29.7   39.1    7.3    +5.9  238.9

     24   11 34.14  +29 07.4    1.461   0.787    30.6   40.5    7.3    +6.3  238.5

     25   11 38.75  +29 42.6    1.439   0.785    31.5   41.9    7.2    +6.7  238.0

     26   11 43.58  +30 17.8    1.417   0.784    32.4   43.3    7.2    +7.0  237.6

     27   11 48.62  +30 53.0    1.395   0.783    33.3   44.6    7.2    +7.3  237.1

     28   11 53.90  +31 28.2    1.373   0.783    34.2   45.9    7.1    +7.6  236.5

     29   11 59.42  +32 03.1    1.352   0.783    35.0   47.3    7.1    +7.8  236.0

     30   12 05.20  +32 37.8    1.330   0.784    35.9   48.5    7.1    +8.0  235.4

Oct.  1   12 11.26  +33 12.1    1.309   0.785    36.8   49.8    7.0    +8.1  234.7



NAKANO

         **** Don't distribute anyone except personal use only ****

                (C) Copyright 2006 OAA/ComputingSection

write mail from CFAD0::NAKANO on 2006-09-19 05:42:28(JST).

 





    C/2006 M4 (SWAN)

T 2006 Sept. 29.35640 TT                                Nakano

q   0.8064325            (2000.0)            P               Q

                   Peri.   61.24790     -0.24034952     +0.84168576

                   Node   148.59735     +0.16215187     -0.45631407

e   1.0            Incl.  111.87711     +0.95704696     +0.28869111

From 16 observations 2006 June 30-July 15.



NAKANO

         **** Don't distribute anyone except personal use only ****

                (C) Copyright 2006 OAA/ComputingSection

write mail from CFAD0::NAKANO on 2006-07-20 23:22:32(JST).

 



戻ります。